Regional Weather Roundup
Issued by NWS Memphis, TN

Home | Current Version | Previous Version | Text Only | Print | Product List | Glossary On
Versions: 1 2 3 4 5 6 7 8 9 10 11 12 13 14 15 16 17 18 19 20 21 22 23 24 25 26 27 28 29 30 31 32 33 34 35 36 37 38 39 40 41 42 43 44 45 46 47 48 49 50
000
ASUS44 KMEG 221300
RWRMEG
MEMPHIS CWA HOURLY WEATHER ROUNDUP
NATIONAL WEATHER SERVICE MEMPHIS TN
800 AM CDT MON SEP 22 2014

...WEST TENNESSEE...

CITY           SKY/WX    TMP DP  RH WIND       PRES   REMARKS
MEMPHIS INTL   SUNNY     63  52  67 NE9       30.20R
NWS MEMPHIS      N/A     60 N/A N/A MISG        N/A
JACKSON        SUNNY     58  53  84 N6        30.20R
DYERSBURG      SUNNY     59  45  58 N8        30.23R
PARIS          SUNNY     54  50  87 VRB5      30.21R


...EASTERN ARKANSAS...

CITY           SKY/WX    TMP DP  RH WIND       PRES   REMARKS
JONESBORO      SUNNY     61  52  72 NE8       30.22R
WEST MEMPHIS   SUNNY     59  55  87 N8        30.20R
BATESVILLE     SUNNY     57  50  77 NW5       30.25R
WALNUT RIDGE   SUNNY     55  32  41 N9        30.23S
BLYTHEVILLE    SUNNY     58  55  90 N8        30.22R
NW BLYTHEVILLE SUNNY     57  52  82 N7        30.22
STUTTGART      SUNNY     59  54  82 N9        30.22R
PINE BLUFF     SUNNY     61  52  72 N12       30.21R
MONTICELLO     LGT RAIN  64  52  64 NE7       30.18R


...NORTH MISSISSIPPI...

CITY           SKY/WX    TMP DP  RH WIND       PRES   REMARKS
TUPELO         SUNNY     61  53  75 NE12      30.15R
OLIVE BRANCH   SUNNY     59  55  88 N6        30.19R
GREENWOOD      SUNNY     64  55  72 N7        30.14R
COLUMBUS       SUNNY     64  54  70 N9        30.12R
STARKVILLE     FAIR      63  54  72 N6        30.12S
GOLDEN TRIANGL SUNNY     64  55  72 N9        30.12R


...SOUTHEAST MISSOURI...

CITY           SKY/WX    TMP DP  RH WIND       PRES   REMARKS
WEST PLAINS    SUNNY     54  49  83 CALM      30.29R
POPLAR BLUFF   SUNNY     57  51  80 N5        30.24R
CAPE GIRARDEAU SUNNY     54  51  90 CALM      30.25R


...NORTHWEST ALABAMA...

CITY           SKY/WX    TMP DP  RH WIND       PRES   REMARKS
MUSCLE SHOALS  SUNNY     63  52  67 N8        30.15R


...MIDDLE TENNESSEE...

CITY           SKY/WX    TMP DP  RH WIND       PRES   REMARKS
NASHVILLE      SUNNY     60  52  74 N10       30.18R
CLARKSVILLE    SUNNY     56  51  84 N8        30.20R


...WESTERN KENTUCKY...

CITY           SKY/WX    TMP DP  RH WIND       PRES   REMARKS
PADUCAH        SUNNY     60  53  77 N5        30.23R
FORT CAMPBELL  SUNNY     56  55  94 N9        30.20R


...CENTRAL ARKANSAS...

CITY           SKY/WX    TMP DP  RH WIND       PRES   REMARKS
LITTLE ROCK    SUNNY     63  50  62 N7        30.23R


SKY/WX REPORTED AS FAIR MEANS FEW OR NO CLOUDS BELOW
12 THOUSAND FEET.




USA.gov is the U.S. government's official web portal to all federal, state and local government web resources and services.